Theta_e
304 304 304 305 306 304 304 303 303 303 303 303 303 303 304 304 304 299 295 297 291 285 285 287 287 284 284 284 282 286 287 286 285 283 281 278 278 279 278 282 284 284 282 281 277 270 274 272 276 279 274 274 273 271
304 304 304 306 306 306 305 304 304 304 304 304 304 305 305 304 304 301 292 295 295 288 286 290 289 289 288 287 286 286 286 286 288 282 275 276 273 275 273 278 283 281 281 278 278 275 270 270 270 272 274 272 270 270
302 304 304 304 306 306 305 305 305 304 304 304 305 305 305 305 304 299 292 292 292 285 286 286 285 287 290 288 288 287 286 291 288 287 281 277 275 280 277 275 278 278 276 275 272 269 269 269 269 269 269 268 268 268
300 303 303 304 304 304 305 306 306 305 305 305 305 305 305 305 304 298 292 290 290 284 282 283 291 286 290 291 291 292 292 293 292 288 283 279 279 282 279 280 277 271 274 272 268 268 268 268 268 268 267 267 266 266
298 300 303 303 303 303 304 305 307 306 306 306 305 305 305 305 299 292 289 288 288 286 276 282 285 288 289 291 289 292 292 288 284 282 280 279 281 281 278 275 267 263 270 272 272 269 268 268 267 268 266 264 265 265
296 298 301 302 302 303 303 303 303 305 305 305 305 304 304 300 298 294 286 291 289 288 282 276 285 284 285 288 287 284 285 283 283 279 276 277 279 280 267 265 264 263 262 261 262 263 264 263 263 265 263 263 264 264
295 296 298 301 301 302 303 302 302 301 302 303 302 302 299 295 288 284 285 285 290 286 282 278 278 283 283 285 284 284 281 277 279 277 277 278 276 275 267 266 262 262 261 262 263 264 261 260 259 261 261 262 261 261
294 294 296 298 301 301 301 301 301 299 300 300 300 299 297 294 291 283 285 285 290 286 280 273 273 279 282 281 280 282 277 277 273 272 272 272 271 266 260 263 261 260 260 259 258 259 260 259 258 257 256 256 257 257
293 293 293 294 297 300 300 299 299 299 299 298 297 296 290 284 279 282 289 286 281 282 274 268 268 270 278 280 281 279 279 272 270 269 267 268 266 265 261 262 260 259 258 257 256 256 256 256 255 253 252 251 252 253
292 292 292 292 294 297 299 298 297 297 295 292 288 286 280 278 287 287 281 279 274 270 270 266 269 267 276 277 276 277 275 271 270 267 267 260 259 260 258 256 258 256 256 256 254 251 250 250 252 251 250 249 251 251
291 291 291 291 291 293 295 298 297 295 291 284 280 278 282 285 282 276 270 270 268 267 264 264 267 270 274 274 273 276 272 270 269 267 266 260 263 260 255 254 255 255 254 249 249 250 250 252 252 250 248 247 247 248
290 290 290 290 289 289 291 292 290 282 280 283 279 278 276 270 271 271 264 264 262 261 260 263 265 266 269 273 276 274 271 269 265 260 264 263 264 257 254 253 251 251 251 249 246 250 247 250 248 247 247 247 248 249
289 289 290 289 288 287 290 291 290 288 283 278 273 268 271 265 265 266 261 259 260 258 259 260 266 267 272 274 272 272 267 260 259 263 262 263 258 255 253 251 247 244 244 245 246 245 245 246 245 247 250 249 248 247
288 288 289 288 288 286 285 285 285 279 273 268 269 264 261 259 254 254 255 256 258 260 258 259 262 267 268 270 268 269 260 261 259 259 262 262 257 255 250 247 249 248 246 246 246 245 247 248 249 248 248 248 249 250
287 286 287 287 286 284 283 281 277 265 264 262 263 259 259 257 257 257 255 254 256 255 257 259 261 265 265 266 263 259 259 258 258 263 260 254 250 253 250 246 247 247 246 246 246 247 248 248 248 249 249 247 246 244
286 282 281 288 284 283 279 271 263 259 256 257 254 256 250 253 253 251 248 249 254 254 254 253 254 259 257 259 261 261 262 261 263 255 251 249 250 249 248 248 249 248 249 246 247 248 249 248 248 249 244 243 244 243
282 269 285 286 282 278 278 262 260 254 253 254 251 246 250 249 251 249 248 251 255 250 252 249 258 258 256 256 258 254 260 260 255 250 246 249 253 251 249 249 248 248 249 248 245 244 246 243 242 244 247 247 242 245
268 274 285 284 269 269 259 259 257 256 252 248 254 249 246 247 248 246 246 250 249 248 248 254 256 255 255 258 257 257 251 247 246 247 249 247 247 249 251 252 249 248 247 246 245 245 243 243 245 249 244 243 242 243
272 279 282 281 269 262 261 259 258 254 249 245 246 248 246 247 247 248 247 249 250 250 251 252 256 257 258 255 256 251 246 250 251 251 249 246 248 250 249 246 249 247 248 246 245 248 248 247 248 246 247 243 248 245
282 283 281 277 272 263 259 256 255 258 253 253 247 249 248 249 246 242 242 245 247 246 253 255 257 256 257 255 253 252 251 252 252 249 249 250 248 247 250 250 251 249 247 243 242 244 242 243 244 245 245 246 245 250
275 273 276 265 259 256 253 249 253 250 248 251 244 248 250 246 246 246 245 243 249 251 255 254 253 250 243 243 244 245 250 254 253 255 256 252 250 251 248 248 245 244 246 246 248 248 247 249 250 245 245 247 249 250
264 276 264 267 260 255 254 249 253 249 251 246 248 244 247 250 247 245 242 247 250 257 255 254 250 246 245 248 248 245 247 247 244 248 249 252 251 249 247 249 246 248 248 250 250 251 251 251 247 246 245 249 247 246
271 269 263 261 262 258 253 249 253 248 255 252 246 252 250 246 244 244 249 249 252 248 245 245 243 240 245 240 240 241 241 248 248 246 246 247 244 245 246 249 252 252 251 252 250 250 250 250 249 248 247 245 244 245
267 259 258 256 258 254 249 250 249 248 248 249 250 253 251 246 245 248 253 250 253 241 243 243 243 246 244 244 245 248 250 246 245 244 243 247 248 249 248 251 249 253 254 246 249 250 249 249 249 248 248 247 245 247
267 260 258 257 251 255 253 251 249 252 253 245 251 253 251 242 251 249 253 257 248 244 244 240 242 245 253 250 246 247 244 251 252 253 250 251 246 246 246 245 249 251 250 248 250 248 249 245 247 248 248 247 248 249
262 253 258 252 252 259 253 256 252 253 247 250 250 245 241 248 253 257 255 255 252 253 249 252 254 249 249 251 251 247 252 250 250 252 251 253 254 256 257 254 253 255 253 254 255 252 252 251 250 249 250 249 250 250
260 258 248 241 246 248 249 245 245 249 251 255 250 249 250 255 254 260 256 253 256 256 256 258 260 260 262 255 254 250 246 253 254 253 248 252 256 258 258 256 255 256 252 253 254 254 254 252 252 251 252 250 251 253
256 250 263 251 247 244 252 247 250 255 254 249 252 255 257 259 263 262 261 254 249 245 246 247 248 251 250 251 249 251 245 244 245 248 250 251 250 252 254 256 253 257 252 253 254 253 253 253 253 253 252 253 253 256
252 246 252 247 245 246 252 257 257 253 249 254 258 256 258 257 255 252 252 248 243 248 249 249 248 242 244 245 245 247 250 252 253 252 253 257 252 257 254 255 255 256 255 254 256 256 254 254 254 254 254 254 254 253
250 242 250 248 256 259 253 245 246 239 239 240 240 246 249 250 250 247 245 245 250 253 256 253 252 252 253 252 251 248 246 251 256 260 258 260 259 255 254 255 255 255 255 255 255 255 260 261 258 259 254 252 251 251
243 243 251 250 253 245 239 236 237 237 237 237 235 241 246 245 246 249 250 253 254 248 250 249 247 250 252 252 253 252 255 253 253 255 256 252 250 252 254 254 254 254 254 254 254 254 255 255 255 256 256 256 255 255
245 248 253 256 252 241 237 241 243 246 242 242 243 236 242 244 250 256 250 248 248 250 254 257 257 259 255 257 254 254 255 253 253 253 253 255 256 256 255 254 255 254 254 254 254 254 254 254 254 254 255 254 255 257
248 247 245 249 249 249 243 246 247 248 248 249 250 246 242 245 253 258 251 251 252 253 254 255 258 256 256 256 257 257 256 255 255 259 258 258 257 258 257 256 256 255 255 255 255 255 255 255 255 254 254 255 255 256
Wind_Speed
31 32 30 15 31 32 33 33 30 30 28 27 26 26 27 27 29 14 3 3 4 2 3 1 2 5 4 5 6 5 3 3 2 4 4 3 2 4 3 0 6 7 8 4 4 3 8 7 3 5 6 6 9 9
33 31 34 20 19 28 31 30 30 29 28 28 27 26 27 27 30 12 3 2 5 4 3 1 2 2 2 3 6 3 6 5 4 5 2 4 2 1 3 4 2 3 3 7 2 3 5 8 8 7 4 9 5 8
34 31 32 36 25 17 27 26 28 30 30 29 27 27 28 30 28 10 4 4 5 3 3 2 2 6 3 4 3 4 0 3 2 2 6 3 4 3 4 4 5 2 4 5 5 3 4 6 9 10 10 12 10 8
32 30 28 29 27 25 20 7 27 34 30 29 29 31 30 30 29 7 4 1 4 4 3 2 3 3 10 10 4 2 3 5 2 1 4 2 4 1 1 3 3 0 3 7 5 5 5 3 7 8 10 10 9 9
31 30 23 25 24 23 26 22 18 39 31 32 31 30 28 29 19 12 4 2 1 5 5 1 1 4 8 5 12 6 7 5 3 3 3 2 2 3 2 3 1 2 3 5 5 8 3 6 9 8 9 8 7 7
30 29 27 20 21 23 28 32 36 32 29 28 27 27 27 27 18 4 3 2 4 3 6 2 2 5 7 8 12 13 7 4 4 3 2 2 1 2 3 4 2 2 3 1 4 5 13 14 8 7 9 7 7 7
30 29 27 22 21 22 24 28 30 30 29 30 28 28 24 20 7 6 2 4 10 0 5 3 2 3 4 2 3 4 3 3 4 2 3 2 3 4 2 3 7 6 6 9 10 10 8 3 5 5 8 7 7 7
29 28 26 23 19 20 22 25 27 29 28 29 26 27 25 26 15 6 6 9 3 6 4 4 2 3 6 3 3 3 3 3 7 2 2 3 2 3 1 4 9 7 7 6 6 6 7 11 8 6 4 4 6 5
27 25 24 22 18 16 19 21 23 24 25 27 28 26 6 8 4 2 7 5 7 7 5 4 3 3 6 2 2 3 1 4 1 3 2 0 1 3 2 10 10 7 4 10 7 9 8 8 8 5 4 4 4 2
26 25 23 22 19 11 14 16 15 16 15 9 8 6 4 2 7 4 9 8 10 6 6 4 2 2 3 3 2 1 2 2 3 2 2 4 1 1 2 1 7 7 10 10 9 2 1 3 5 4 4 3 3 3
24 24 22 21 18 15 6 5 5 10 14 5 4 3 1 6 2 5 5 6 4 5 5 3 4 3 5 2 1 2 2 1 3 2 1 2 2 3 4 6 5 6 6 3 2 2 4 6 7 6 4 3 3 3
21 24 23 20 19 14 8 6 6 6 1 4 8 6 4 7 4 7 3 2 6 1 4 3 3 3 4 2 0 3 2 1 2 2 3 2 2 5 7 6 4 5 6 5 2 7 4 6 5 5 4 3 4 4
15 22 23 21 18 16 13 17 20 16 3 4 8 8 6 6 9 4 2 1 2 3 4 4 1 2 2 1 3 2 5 1 1 4 3 3 3 5 5 5 3 2 4 4 3 3 3 3 3 4 4 4 2 1
15 15 23 22 17 16 15 12 9 7 8 8 6 8 6 4 2 1 1 0 2 2 4 3 3 2 2 3 2 4 1 0 4 3 5 3 7 9 6 3 5 5 4 4 4 3 3 3 2 3 4 3 3 1
16 7 20 20 18 12 14 18 17 8 7 7 6 6 4 1 1 1 1 2 2 2 3 2 2 1 3 4 3 4 4 2 4 5 4 3 4 9 7 4 4 5 5 4 3 4 4 4 3 2 3 2 3 2
16 5 11 21 16 11 9 10 8 5 7 7 10 5 3 3 4 3 2 2 1 3 2 2 1 4 2 3 3 3 5 5 4 4 2 2 5 5 5 6 6 5 6 5 5 5 4 5 5 5 2 3 4 4
10 3 21 17 6 12 13 8 6 11 7 7 3 3 3 2 2 3 2 3 2 3 1 3 5 4 1 5 2 3 5 4 3 3 2 4 9 9 7 6 6 7 7 6 4 4 4 2 3 1 3 4 5 6
2 6 19 15 5 7 6 8 8 8 9 2 4 3 1 2 2 2 3 2 2 1 3 4 4 4 4 4 4 5 3 2 2 2 3 3 4 6 6 8 6 6 6 6 5 3 4 4 4 6 4 4 3 5
3 9 17 13 8 8 7 8 6 7 2 2 1 0 2 2 3 0 1 2 3 2 1 2 4 2 4 4 4 3 3 4 4 3 2 1 3 7 6 4 5 6 6 5 5 5 4 6 5 4 4 3 4 3
6 12 14 20 10 7 9 5 3 7 3 3 2 1 2 3 2 1 1 2 1 1 3 1 5 5 5 4 4 3 3 4 4 3 2 2 2 5 7 6 5 5 3 2 2 2 1 3 4 5 4 5 3 6
6 8 11 8 7 11 8 2 6 3 3 3 2 1 2 3 3 4 2 2 3 3 2 5 4 3 1 1 0 2 3 5 5 4 5 4 4 5 4 4 4 3 4 4 5 5 6 7 4 3 4 5 6 6
3 10 5 7 8 6 8 2 5 1 4 1 3 2 2 2 3 3 2 2 4 5 5 4 4 3 1 2 4 4 3 5 3 3 4 6 5 3 4 5 5 5 6 7 6 7 6 6 4 4 4 5 3 3
6 5 6 6 9 9 2 2 5 5 4 2 2 4 3 3 3 1 3 4 5 2 2 2 3 1 3 1 0 1 3 6 3 3 2 3 1 2 3 5 7 7 6 6 6 5 6 4 5 5 4 2 3 3
9 9 7 5 5 2 2 5 3 4 4 4 3 2 3 3 4 4 4 5 4 1 1 4 3 3 3 3 2 4 5 4 2 1 3 4 3 4 5 5 5 6 6 3 4 5 5 5 5 4 4 4 4 5
8 7 5 4 3 6 5 3 4 4 2 2 2 2 2 2 2 2 5 6 3 3 3 2 1 1 4 3 2 4 4 8 7 8 5 7 3 2 2 4 6 7 5 4 6 6 5 3 4 5 6 6 7 8
3 4 2 4 1 5 6 4 4 6 4 2 5 2 2 3 1 8 6 5 5 6 7 10 10 4 5 7 4 3 6 8 5 4 4 9 10 8 7 5 4 6 10 11 7 8 8 7 7 8 8 9 9 8
4 6 1 1 3 5 4 3 2 4 4 7 4 3 3 2 7 8 4 5 5 6 7 8 10 10 8 5 5 4 3 9 7 4 0 4 7 8 7 7 9 6 6 9 9 9 9 8 8 8 8 5 8 9
4 6 8 5 3 1 7 2 5 8 5 3 5 5 9 11 8 6 6 2 1 2 2 2 2 1 3 2 2 6 3 2 2 2 3 4 6 6 8 7 4 4 4 6 7 6 7 7 7 7 7 8 6 7
2 2 4 4 2 1 6 7 7 5 2 5 6 5 7 5 4 3 2 2 2 3 3 2 3 2 3 3 2 2 5 8 10 8 8 7 3 6 10 9 7 7 6 6 8 8 9 6 7 7 8 7 6 5
2 0 5 2 7 7 3 2 2 1 0 0 1 5 4 5 6 2 3 3 4 7 6 4 5 7 6 7 4 4 5 6 8 8 7 8 6 3 4 6 7 7 6 6 6 4 7 7 5 6 4 3 3 3
1 1 3 1 3 1 1 1 0 0 1 1 1 2 5 8 9 5 6 5 5 4 4 3 3 5 6 6 7 4 6 8 14 15 10 3 1 2 3 3 3 5 6 6 6 6 5 6 6 8 8 9 8 9
1 2 3 3 2 1 1 1 1 1 2 3 2 1 4 4 7 6 4 4 4 5 10 9 8 10 10 6 4 4 3 4 6 9 12 9 8 6 4 3 4 4 5 5 5 5 7 8 6 7 8 9 9 10
2 2 1 2 2 0 1 2 3 3 1 2 3 4 3 4 9 6 2 6 4 5 7 8 7 4 5 9 9 7 7 5 6 8 9 10 9 8 6 6 5 5 6 5 5 6 8 9 8 9 9 10 10 10
Wind_Direction
24 25 18 50 173 183 182 190 189 191 192 193 193 190 188 187 183 177 154 116 122 93 93 268 304 145 133 183 177 160 113 225 88 139 133 239 155 224 91 322 160 169 171 169 97 108 253 11 321 188 110 79 112 96
19 22 25 72 140 171 181 184 186 188 188 189 187 183 181 171 169 160 105 45 88 87 107 154 102 84 327 327 140 169 147 240 174 109 153 136 159 110 164 168 320 174 164 157 144 180 56 14 73 46 96 120 97 96
17 24 27 40 84 142 179 184 185 188 190 193 192 184 175 176 173 154 122 143 119 116 31 68 355 318 16 15 300 152 241 195 282 159 161 160 131 170 163 217 105 64 5 92 126 116 106 98 77 66 72 95 93 84
18 22 28 35 50 54 51 104 196 196 180 176 174 175 173 170 168 122 96 11 80 105 105 327 309 29 311 314 206 196 90 90 143 16 66 110 113 9 154 126 107 304 57 112 76 119 106 95 101 110 97 91 90 79
22 20 36 35 37 47 46 35 151 167 167 172 169 165 165 161 121 86 87 46 321 124 148 137 277 356 344 35 55 66 106 206 62 65 52 59 80 130 43 64 92 342 123 166 198 157 110 120 130 121 110 99 86 100
24 25 27 46 46 49 62 65 62 106 130 137 138 135 135 133 118 114 55 18 20 46 104 93 285 0 351 17 55 44 27 29 80 106 117 101 41 69 102 192 102 92 36 249 150 66 89 105 91 98 104 103 103 99
26 26 24 49 55 59 65 79 81 80 95 105 106 108 100 81 72 60 65 294 330 247 83 86 56 7 335 13 39 50 49 65 58 78 43 62 57 61 90 186 137 102 89 87 105 105 69 345 138 99 113 111 96 87
27 27 28 28 51 67 73 82 90 94 94 98 96 94 93 103 122 39 357 356 198 86 65 94 312 31 9 27 82 3 52 35 25 86 38 44 7 71 91 136 124 119 102 65 36 52 88 114 104 89 77 82 94 87
29 28 29 29 35 83 88 91 94 97 103 109 115 125 82 36 60 209 318 27 49 65 99 59 111 218 330 65 55 64 94 74 305 73 51 208 289 190 162 160 159 168 177 139 81 67 82 105 114 102 86 75 119 151
26 28 28 29 29 60 109 89 71 53 49 61 56 44 49 11 315 329 5 23 21 17 37 74 286 254 330 34 55 100 16 88 79 17 327 56 267 338 1 63 119 133 135 131 105 101 115 114 148 142 178 183 166 162
24 27 29 31 28 19 49 109 77 36 20 45 65 78 180 316 48 42 57 43 335 37 13 324 14 14 9 57 98 356 142 84 93 273 128 319 301 156 116 89 92 111 132 128 153 127 118 132 152 160 183 207 192 203
28 24 29 31 34 27 36 80 87 68 137 144 116 90 58 28 38 84 53 23 39 102 326 344 345 354 301 305 83 3 109 72 172 335 76 329 156 130 144 149 149 137 133 118 90 125 115 121 146 148 161 187 203 216
24 25 25 28 36 44 44 78 93 111 93 53 53 55 21 330 46 50 140 360 88 339 355 337 68 327 278 317 69 22 63 154 265 35 210 235 122 158 161 137 110 56 86 96 84 75 115 147 154 169 191 220 202 233
15 29 22 30 28 44 53 52 51 37 59 59 48 47 51 9 43 214 331 17 17 323 341 311 286 10 306 52 349 78 348 6 48 45 246 223 184 171 156 149 127 185 173 156 172 175 174 164 203 224 220 193 160 230
10 34 22 24 27 51 63 65 54 44 63 68 44 61 60 136 90 58 40 351 311 322 327 324 281 333 19 89 31 108 37 356 195 226 233 231 159 152 162 158 150 146 161 178 178 175 191 188 198 253 247 219 200 231
8 52 3 3 36 47 98 58 40 70 57 64 43 87 321 51 336 360 11 302 339 343 355 55 55 62 12 118 80 193 111 208 237 220 237 116 131 137 151 166 182 169 169 177 181 185 177 179 196 220 286 255 227 205
38 19 335 347 47 53 56 76 54 49 79 51 33 15 88 72 166 226 168 252 343 65 226 98 67 203 73 48 19 198 187 218 209 244 224 194 170 174 163 158 172 175 179 182 169 179 198 165 123 66 275 267 220 218
82 288 349 357 73 58 35 42 77 74 62 339 90 249 191 177 168 273 261 296 83 200 137 185 129 72 146 134 268 239 229 244 224 217 196 179 160 160 168 173 167 168 171 185 188 179 173 168 198 233 222 243 263 254
254 7 19 24 78 87 67 25 46 94 178 204 265 348 162 233 257 309 210 260 215 205 128 43 81 166 223 209 198 215 209 194 171 185 202 233 168 167 168 153 160 172 181 180 178 206 206 204 216 211 218 172 221 230
349 26 25 40 48 76 62 12 32 90 122 210 75 31 169 199 233 131 286 24 42 103 40 111 206 216 186 229 193 169 170 146 128 84 311 254 192 154 181 174 188 171 169 189 249 207 230 276 232 218 209 207 197 249
12 351 20 62 49 63 84 10 49 110 146 101 287 46 268 1 14 15 323 338 40 202 252 210 224 243 264 232 193 102 155 163 172 167 179 171 182 177 172 191 157 154 172 189 211 227 205 227 233 198 192 219 222 238
292 356 52 29 73 49 79 335 114 193 73 195 30 29 25 354 321 307 292 25 233 233 194 180 209 158 128 224 208 199 195 137 103 96 72 107 126 159 213 193 153 205 209 216 204 219 224 222 201 199 201 240 199 228
7 30 45 42 74 45 283 59 74 360 90 281 23 27 335 337 235 286 279 224 258 231 172 159 154 88 144 318 319 257 200 156 175 186 184 197 219 186 146 177 189 195 215 234 203 218 231 190 204 210 209 200 193 234
27 50 51 56 62 147 17 24 38 64 41 37 71 294 296 257 325 45 252 254 245 338 196 196 148 89 24 21 240 218 194 165 147 251 192 158 204 237 201 206 198 217 215 162 183 212 216 219 195 202 199 203 210 224
69 342 62 15 1 84 71 33 359 62 154 212 120 299 277 20 22 286 237 268 264 236 207 148 205 239 171 235 290 239 193 172 184 210 203 197 144 55 277 235 230 224 169 180 225 213 228 199 204 204 202 202 216 225
86 315 82 191 256 119 182 125 180 184 142 158 224 265 34 91 60 245 234 224 219 190 181 187 183 175 246 214 201 207 212 184 136 199 236 190 195 198 212 199 225 253 194 206 202 204 217 203 207 211 222 221 219 221
162 224 241 252 100 111 76 35 68 110 154 188 196 133 99 179 244 248 263 221 199 205 184 173 177 188 203 178 205 209 158 164 173 197 171 189 204 209 196 195 210 230 162 182 196 198 209 201 206 210 222 209 213 213
162 166 169 176 97 329 132 120 160 191 209 203 100 182 185 199 232 231 209 254 146 85 55 355 342 119 134 198 152 117 95 92 80 329 289 250 222 221 222 231 217 179 170 179 189 182 194 201 202 202 206 221 225 210
150 234 113 85 93 163 206 178 203 214 161 158 168 218 235 232 248 241 254 187 133 120 132 175 232 74 63 55 72 133 143 158 156 183 226 242 297 244 202 207 203 202 193 192 209 199 203 198 201 205 215 217 221 206
210 140 91 109 152 210 218 149 208 263 360 126 298 300 276 263 250 197 160 153 176 202 205 178 139 173 186 176 190 230 222 211 213 207 210 229 227 231 174 182 190 184 177 183 197 205 243 225 223 226 200 209 202 204
91 48 76 90 199 230 213 288 271 334 35 40 9 207 270 309 303 245 211 208 199 151 146 177 199 200 177 188 191 178 241 209 220 224 233 205 200 225 203 181 158 154 165 173 178 187 193 205 215 227 231 233 223 221
113 156 131 150 247 320 358 65 51 33 344 357 281 289 303 327 275 276 181 128 124 197 221 213 205 220 206 225 199 204 165 147 175 203 206 214 220 213 183 163 153 155 161 171 177 185 199 210 211 217 233 238 239 240
120 107 89 108 97 128 259 110 35 337 242 264 247 199 225 219 251 286 256 215 190 190 202 211 219 184 185 199 207 210 204 194 189 192 191 201 205 204 187 178 174 176 180 191 199 203 214 221 231 235 236 242 247 247